Regional Weather Roundup
Issued by NWS

Home | Current Version | Previous Version | Graphics & Text | Print | Product List | Glossary On
Versions: 1 2 3 4 5 6 7 8 9 10 11 12 13 14 15 16 17 18 19 20 21 22 23 24 25 26 27 28 29 30 31 32 33 34 35 36 37 38 39 40 41 42 43 44 45 46 47 48 49 50
000
ASUS43 KLSX 012307
RWRMO

WEATHER SUMMARY FOR MISSOURI
NATIONAL WEATHER SERVICE SPRINGFIELD MO
600 PM CDT WED OCT 01 2014

NOTE: "FAIR" INDICATES FEW OR NO CLOUDS BELOW 12,000 FEET WITH NO
       SIGNIFICANT WEATHER AND/OR OBSTRUCTIONS TO VISIBILITY.
       CURRENT SKY AND/OR WEATHER CONDITIONS ARE NOT AVAILABLE FOR
       CHILLICOTHE AND FARMINGTON.

MOZ001>031-035>038-043-044-053-054-020000-
...NORTHERN AND WESTERN MISSOURI...

CITY           SKY/WX    TMP DP  RH WIND       PRES   REMARKS
KANSAS CTY INT PTSUNNY   75  69  81 E14       29.74R
KANSAS C DTWN  PTSUNNY   73  65  75 SE18G25   29.74R
LEE`S SUMMIT   TSTM      68  65  90 SW3       29.77R FOG
ST JOSEPH      MOSUNNY   77  68  73 SE12      29.73R
CHILLICOTHE      N/A     72  67  84 VRB3      29.76S
KIRKSVILLE     CLOUDY    67  66  97 W7        29.83R FOG

$$
MOZ066>068-077>081-088>096-101>105-020000-
...SOUTHWEST MISSOURI...

CITY           SKY/WX    TMP DP  RH WIND       PRES   REMARKS
SPRINGFIELD    CLOUDY    81  65  58 S12       29.77R
JOPLIN         TSTM      76  70  82 SW8       29.75R

$$
MOZ032>034-039>042-045>050-055>058-069>072-020000-
...CENTRAL MISSOURI...

CITY           SKY/WX    TMP DP  RH WIND       PRES   REMARKS
COLUMBIA       HVY RAIN  68  67  96 NE9       29.80S FOG
ROLLA          MOCLDY    83  62  49 S10       29.78R
SEDALIA        TSTM      68  65  90 E9        29.76S
WHITEMAN AFB   TSTM      66  61  82 W14G39    29.79R VSB 1/4
OSAGE BEACH    MOCLDY    82  64  54 S5        29.76R

$$
MOZ051-052-059>065-020000-
...EAST CENTRAL MISSOURI...

CITY           SKY/WX    TMP DP  RH WIND       PRES   REMARKS
ST LOUIS INTL  CLOUDY    86  62  44 S15G21    29.79S
SPIRIT OF STL  CLOUDY    82  63  52 SE3       29.78R
ST CHARLES     CLOUDY    83  63  50 SE12      29.77S

$$
MOZ072>076-082>087-097>100-106>115-020000-
...SOUTH CENTRAL AND SOUTHEAST MISSOURI...

CITY           SKY/WX    TMP DP  RH WIND       PRES   REMARKS
CAPE GIRARDEAU MOCLDY    82  62  50 S10       29.86R
FARMINGTON     CLEAR     82  64  54 S14G21    29.86S
POPLAR BLUFF   CLOUDY    75  66  73 S6        29.84R
WEST PLAINS    MOCLDY    80  66  62 SE10      29.84F

$$



USA.gov is the U.S. government's official web portal to all federal, state and local government web resources and services.